Wind_Speed
23 22 22 21 21 22 22 21 21 20 20 19 19 19 19 20 20 21 21 21 22 22 22 22 22 22 23 23 23 23 24 25 25 25 26 27 27 27 27 27 27 28 28
24 24 23 23 23 23 23 23 23 22 21 21 21 21 21 21 21 22 22 22 23 23 23 23 23 23 23 23 23 23 24 24 25 25 25 26 26 26 27 27 28 28 28
25 25 24 24 24 24 24 24 24 24 22 22 22 22 22 21 22 23 23 23 24 24 24 24 24 24 25 25 25 25 25 25 25 25 25 26 26 27 27 27 27 27 27
25 25 25 24 24 24 24 24 24 24 24 23 23 23 23 23 23 23 23 24 25 25 25 25 25 25 25 26 26 26 26 26 26 26 26 26 26 27 27 28 28 28 28
25 25 25 24 24 24 24 25 25 25 24 24 24 24 24 24 25 25 25 24 24 24 25 26 26 26 27 26 26 26 26 25 25 25 26 27 27 27 28 29 29 29 30
25 25 25 25 25 25 25 26 26 26 26 26 26 25 25 25 25 25 25 25 25 25 25 26 27 27 27 26 26 27 27 26 26 26 27 27 28 28 28 29 29 30 30
26 26 25 26 26 26 26 26 27 27 27 26 27 27 26 27 26 26 26 26 26 26 26 26 26 26 26 26 26 26 26 27 28 28 28 28 28 28 28 29 30 30 30
27 27 27 27 27 27 27 27 27 27 27 28 28 28 28 28 28 28 27 27 26 26 26 26 27 27 27 27 27 27 27 27 28 28 28 28 28 28 29 29 30 31 30
28 28 28 28 27 26 26 27 27 27 28 28 29 28 28 28 29 29 29 28 27 26 27 28 28 28 28 28 27 27 27 27 27 28 29 29 28 29 29 30 31 31 31
28 28 28 28 26 26 27 27 27 27 27 27 28 28 29 29 28 28 28 28 28 28 28 28 29 29 29 28 28 27 28 28 29 30 30 30 29 29 30 31 32 31 31
27 27 28 28 28 27 28 27 28 27 27 27 27 28 29 29 28 28 29 29 29 28 28 28 29 28 28 29 29 29 30 30 30 31 31 30 30 30 31 31 32 31 30
27 27 28 29 29 28 28 28 27 27 26 26 27 28 28 29 29 29 29 30 29 29 28 28 28 28 28 28 29 30 30 30 30 30 30 30 30 30 30 30 31 31 31
27 27 28 29 29 28 29 28 28 27 26 26 27 27 27 28 28 29 29 30 29 29 29 29 29 29 29 29 29 29 29 30 30 30 30 30 30 31 31 30 31 31 32
27 28 28 27 27 28 27 28 27 27 27 27 27 27 27 27 27 27 28 28 28 28 29 29 30 30 29 28 28 28 29 29 29 30 30 31 31 31 30 30 31 31 31
27 27 26 26 26 27 27 27 27 28 28 27 27 26 26 26 26 26 27 28 28 29 29 29 29 29 29 29 29 28 29 29 30 30 31 31 31 31 30 31 31 31 31
26 26 26 27 27 27 27 27 27 27 27 27 27 26 25 25 26 25 25 26 28 28 28 28 29 29 29 28 28 28 28 29 29 30 30 30 30 30 30 31 31 31 31
25 25 26 27 26 26 27 27 26 26 26 26 26 26 26 26 26 26 26 26 26 27 27 27 27 28 28 28 28 27 27 28 29 28 29 29 29 30 30 31 31 31 30
24 24 25 25 25 25 26 25 25 26 26 26 26 25 26 26 26 25 25 26 26 27 27 27 27 27 28 28 27 27 28 28 28 28 28 29 29 29 29 29 30 30 29
24 24 24 24 25 25 25 25 25 25 25 26 26 26 25 25 25 25 25 26 26 26 26 27 27 27 27 27 27 28 28 28 28 28 28 29 29 29 29 28 29 29 28
23 24 23 23 25 26 26 25 25 24 24 25 25 26 26 26 26 27 27 27 27 26 26 27 27 27 27 27 28 28 28 28 29 29 28 29 29 29 28 28 27 27 26
23 23 23 23 24 25 25 25 25 26 26 25 26 26 26 27 27 27 27 26 26 26 26 26 27 27 27 28 28 28 28 29 29 29 29 29 29 29 28 27 27 26 25
24 24 24 24 24 24 25 25 25 26 27 27 27 28 27 26 26 25 25 26 27 27 27 27 26 26 27 28 28 29 29 29 29 29 28 28 28 28 27 27 26 25 25
23 24 23 24 24 24 25 26 26 26 26 26 27 27 27 27 27 26 26 26 26 26 26 26 26 26 28 28 28 29 29 29 29 29 29 28 28 28 28 27 26 26 26
22 23 23 24 25 25 25 25 26 25 25 25 26 26 26 26 26 26 26 25 25 25 25 25 26 26 27 28 28 28 29 29 29 29 29 29 29 29 28 27 27 26 25
22 22 22 23 23 23 23 24 24 24 25 25 24 24 24 24 25 25 25 25 24 24 24 24 25 26 26 27 27 27 28 28 28 29 28 28 28 28 28 27 26 26 26
20 20 20 21 22 22 22 23 23 23 23 23 23 23 24 24 24 24 24 24 24 24 24 25 25 25 26 26 26 26 27 27 27 26 26 26 26 26 26 26 25 25 25
Wind_Direction
265 267 268 269 270 269 268 268 267 266 266 267 268 271 271 270 269 268 268 268 271 272 272 271 271 273 274 273 273 273 272 272 271 270 269 268 269 269 269 269 270 269 269
263 264 266 268 270 270 268 268 268 265 265 266 268 271 272 270 270 270 270 270 272 271 270 270 270 271 273 273 273 274 275 274 273 273 272 270 269 271 271 271 271 271 271
262 262 264 267 269 269 269 268 267 264 265 265 266 269 271 273 273 272 272 271 271 272 270 269 269 270 271 272 273 274 275 276 275 274 272 272 269 270 270 272 272 272 272
262 262 262 264 265 267 268 268 267 265 264 264 266 267 269 272 272 273 273 272 271 270 269 268 269 270 272 273 273 274 275 276 275 274 273 272 271 270 270 271 272 272 273
263 263 263 263 265 266 266 267 267 265 265 267 267 266 268 271 272 274 273 274 272 271 270 269 269 270 272 274 275 275 276 276 275 275 275 274 274 273 272 272 273 273 273
263 262 262 264 266 266 266 266 267 266 267 269 269 268 268 270 272 273 272 274 274 273 271 271 270 271 272 274 273 273 273 274 276 277 277 276 275 276 276 275 275 274 275
264 262 261 264 267 266 265 265 267 267 268 269 270 270 270 270 271 271 271 271 274 274 274 272 272 272 273 274 274 273 273 273 275 276 277 277 276 276 276 277 276 275 275
266 264 263 263 266 266 264 263 266 267 268 269 271 271 270 269 269 270 271 273 272 273 274 274 274 272 272 274 274 275 275 275 276 276 278 278 277 277 278 278 277 276 275
266 265 266 263 264 264 266 266 267 268 268 269 269 269 270 270 269 270 272 273 273 272 273 274 273 272 272 273 274 275 276 277 277 278 278 278 279 280 279 279 279 279 278
266 264 264 262 262 264 266 269 270 270 270 270 269 268 269 269 269 268 270 273 274 273 273 273 271 272 273 274 275 275 276 277 278 279 279 279 280 281 281 279 278 279 278
264 262 261 261 262 264 267 270 271 271 270 269 269 269 270 269 267 268 269 272 275 275 274 273 272 271 272 274 274 276 277 278 279 279 280 280 280 281 281 280 279 279 279
263 261 261 262 264 266 267 268 269 269 268 268 267 269 270 269 267 267 270 272 275 275 275 274 273 271 273 274 273 275 277 278 279 280 281 282 282 282 282 282 280 278 278
262 262 262 263 264 266 266 266 267 267 266 266 267 268 269 270 268 268 270 272 274 274 273 273 273 272 274 275 275 276 278 279 280 281 281 282 282 283 284 283 281 279 277
264 263 263 263 264 265 265 265 265 266 267 267 267 268 269 269 268 268 270 272 272 273 274 273 273 273 275 275 277 278 280 281 281 281 282 283 283 284 284 283 283 281 279
264 262 260 262 264 264 267 267 267 267 267 266 266 268 269 268 267 269 271 272 274 276 276 276 274 273 275 277 278 280 281 282 282 282 283 283 283 284 284 283 283 283 280
263 262 261 261 263 264 264 266 266 267 268 267 268 268 268 268 267 268 271 272 275 276 275 276 275 274 276 277 278 281 282 283 283 284 284 284 284 284 284 284 283 283 281
262 263 263 262 262 265 265 265 267 267 268 269 268 267 266 267 267 268 270 272 274 275 276 277 277 277 276 277 279 281 283 284 285 286 287 286 286 287 287 285 284 282 281
261 262 263 263 265 268 268 267 268 270 269 270 268 269 269 269 269 271 272 273 274 276 275 276 278 277 277 277 278 280 281 282 284 286 287 287 287 287 288 286 284 282 281
261 263 263 265 266 267 267 267 269 270 270 270 268 271 272 272 272 274 276 277 277 276 276 277 278 278 278 278 278 280 279 281 283 286 286 287 286 287 287 285 284 282 280
262 264 266 268 268 267 267 268 268 269 271 272 271 271 272 274 275 275 277 278 278 277 278 279 279 279 279 279 280 280 280 282 283 285 287 288 287 286 285 284 284 282 280
263 265 268 269 270 269 268 268 268 268 269 270 273 273 274 275 277 278 278 277 277 276 277 278 279 280 280 279 279 280 281 282 283 283 284 286 286 285 284 284 282 281 280
263 264 267 269 271 270 269 268 268 269 269 271 271 273 275 277 278 278 277 276 276 277 278 279 279 280 281 281 280 279 280 280 281 283 284 285 285 284 284 284 282 280 278
263 265 267 268 270 272 271 269 268 271 272 272 271 272 275 275 275 276 276 275 276 278 280 280 280 281 281 282 282 280 280 280 279 280 282 282 282 282 283 282 279 277 276
263 265 267 268 270 271 271 269 269 270 272 273 272 272 274 276 277 277 277 278 278 279 280 280 281 282 282 283 283 282 281 281 280 281 283 282 282 282 282 281 279 278 276
263 265 266 268 269 270 270 270 271 270 272 273 274 275 277 278 278 278 277 278 278 279 280 282 285 286 285 285 285 285 284 284 284 283 283 283 282 282 282 281 279 277 275
265 265 267 269 271 271 270 269 269 270 273 275 277 278 278 277 277 277 277 276 277 280 281 283 285 287 287 287 286 286 286 285 285 284 283 283 282 281 281 281 279 276 275
Height
5808 5808 5808 5807 5807 5806 5806 5806 5805 5805 5805 5805 5805 5805 5804 5804 5804 5803 5803 5803 5803 5802 5802 5801 5801 5800 5799 5799 5798 5797 5796 5795 5795 5795 5794 5793 5793 5793 5792 5792 5791 5791 5791
5802 5801 5801 5801 5800 5800 5800 5799 5799 5798 5799 5799 5799 5799 5798 5798 5797 5797 5796 5796 5796 5795 5795 5795 5794 5794 5793 5792 5791 5790 5790 5788 5788 5787 5786 5786 5785 5785 5785 5784 5784 5783 5783
5795 5794 5794 5794 5794 5794 5793 5793 5792 5792 5792 5792 5792 5792 5792 5791 5791 5790 5790 5789 5789 5788 5788 5788 5787 5787 5786 5785 5784 5783 5783 5782 5781 5780 5779 5778 5778 5777 5777 5776 5776 5775 5775
5787 5787 5787 5787 5787 5787 5786 5786 5786 5785 5785 5785 5785 5785 5785 5785 5784 5784 5783 5782 5782 5781 5781 5780 5780 5779 5779 5778 5777 5776 5775 5774 5773 5772 5772 5771 5770 5769 5769 5768 5768 5767 5766
5779 5779 5780 5780 5780 5779 5779 5779 5778 5778 5778 5778 5778 5778 5778 5778 5777 5777 5776 5775 5774 5774 5773 5773 5772 5772 5771 5770 5770 5769 5768 5767 5766 5765 5764 5763 5762 5762 5761 5760 5759 5758 5758
5772 5772 5772 5772 5772 5772 5772 5771 5771 5771 5771 5771 5771 5771 5771 5771 5770 5769 5768 5767 5767 5766 5765 5765 5764 5764 5763 5762 5762 5761 5760 5759 5758 5757 5757 5756 5755 5754 5753 5752 5751 5750 5750
5764 5764 5764 5764 5764 5764 5764 5763 5763 5763 5763 5763 5764 5763 5763 5763 5763 5762 5761 5760 5759 5758 5757 5757 5756 5755 5755 5754 5753 5753 5752 5751 5751 5750 5749 5747 5747 5746 5745 5744 5742 5741 5741
5756 5756 5756 5756 5756 5756 5755 5756 5756 5756 5755 5755 5755 5755 5755 5755 5755 5754 5753 5752 5751 5750 5750 5749 5748 5748 5747 5746 5745 5745 5744 5743 5743 5742 5741 5739 5738 5737 5736 5735 5733 5732 5731
5747 5748 5748 5748 5748 5748 5748 5748 5748 5747 5747 5747 5747 5747 5746 5746 5746 5745 5744 5744 5743 5743 5742 5741 5740 5740 5739 5738 5738 5737 5736 5735 5734 5733 5732 5730 5729 5728 5726 5725 5724 5723 5722
5739 5739 5740 5740 5740 5740 5740 5740 5739 5739 5738 5738 5738 5737 5737 5737 5737 5737 5736 5736 5735 5735 5734 5733 5732 5732 5731 5730 5729 5729 5728 5727 5725 5724 5723 5722 5720 5719 5717 5716 5715 5714 5712
5730 5731 5731 5732 5732 5732 5732 5732 5731 5730 5730 5729 5729 5729 5729 5728 5728 5728 5728 5727 5727 5726 5725 5724 5724 5723 5722 5721 5721 5721 5719 5718 5716 5715 5714 5712 5711 5710 5708 5707 5706 5704 5703
5722 5722 5723 5723 5723 5724 5724 5723 5722 5722 5721 5721 5720 5720 5720 5719 5719 5720 5719 5719 5718 5718 5717 5716 5715 5715 5714 5713 5712 5712 5710 5709 5708 5706 5705 5703 5702 5700 5699 5698 5696 5695 5694
5714 5714 5715 5715 5715 5715 5715 5715 5714 5713 5712 5712 5712 5712 5711 5711 5711 5711 5711 5710 5710 5709 5708 5707 5707 5706 5705 5704 5704 5703 5701 5700 5699 5697 5696 5694 5692 5691 5689 5688 5686 5685 5684
5706 5706 5706 5707 5707 5706 5706 5706 5706 5705 5704 5704 5703 5703 5703 5702 5702 5702 5702 5701 5701 5700 5699 5698 5698 5697 5697 5696 5695 5694 5692 5691 5689 5688 5686 5685 5683 5681 5679 5678 5676 5675 5674
5697 5698 5698 5698 5698 5698 5698 5697 5697 5697 5696 5695 5695 5694 5694 5694 5694 5694 5693 5693 5692 5691 5690 5689 5689 5689 5688 5687 5686 5685 5683 5682 5680 5678 5677 5675 5673 5671 5670 5668 5667 5665 5664
5689 5689 5690 5690 5690 5690 5690 5689 5689 5688 5688 5687 5686 5686 5686 5685 5685 5685 5684 5684 5683 5682 5681 5681 5680 5679 5679 5678 5677 5676 5674 5673 5671 5669 5667 5665 5664 5662 5660 5659 5657 5656 5655
5682 5682 5681 5681 5681 5682 5682 5681 5681 5680 5679 5679 5678 5678 5677 5677 5676 5676 5676 5675 5674 5673 5673 5672 5672 5671 5670 5669 5668 5667 5665 5664 5662 5660 5658 5656 5655 5653 5651 5649 5648 5647 5645
5674 5674 5673 5673 5673 5674 5673 5673 5672 5672 5671 5670 5670 5669 5669 5668 5668 5668 5667 5666 5666 5665 5664 5664 5663 5662 5661 5660 5659 5658 5657 5655 5653 5651 5650 5648 5646 5644 5642 5640 5639 5637 5636
5666 5666 5666 5666 5666 5666 5665 5664 5664 5663 5663 5662 5661 5661 5661 5660 5660 5660 5659 5658 5657 5657 5656 5655 5655 5654 5653 5652 5650 5649 5648 5646 5645 5643 5641 5639 5637 5635 5633 5631 5630 5629 5627
5658 5659 5658 5658 5658 5657 5657 5656 5656 5656 5655 5654 5654 5653 5653 5653 5652 5651 5651 5650 5649 5648 5648 5647 5646 5645 5644 5643 5641 5640 5639 5638 5636 5634 5632 5631 5629 5627 5625 5623 5621 5620 5619
5650 5651 5650 5650 5650 5649 5649 5649 5648 5648 5648 5647 5646 5646 5646 5645 5644 5643 5642 5641 5641 5640 5639 5638 5637 5636 5635 5634 5633 5631 5630 5628 5627 5625 5623 5622 5620 5618 5616 5615 5613 5612 5611
5642 5643 5643 5642 5642 5642 5641 5641 5641 5640 5640 5639 5639 5638 5638 5637 5636 5635 5634 5633 5632 5632 5631 5630 5629 5627 5626 5625 5623 5622 5620 5619 5617 5616 5614 5613 5611 5610 5608 5606 5605 5604 5603
5635 5635 5635 5635 5635 5634 5633 5633 5632 5632 5632 5631 5631 5630 5629 5628 5628 5627 5626 5625 5624 5623 5622 5621 5620 5619 5617 5616 5614 5613 5611 5610 5608 5607 5605 5604 5603 5601 5599 5598 5596 5595 5594
5627 5627 5627 5627 5627 5626 5625 5625 5624 5624 5624 5623 5623 5622 5621 5620 5619 5618 5618 5617 5615 5614 5614 5612 5611 5610 5609 5607 5605 5604 5602 5601 5599 5597 5596 5595 5593 5592 5590 5588 5587 5586 5585
5620 5620 5620 5620 5619 5618 5618 5617 5617 5617 5616 5615 5614 5613 5612 5612 5611 5610 5609 5608 5607 5606 5605 5604 5603 5601 5600 5598 5597 5595 5593 5591 5590 5588 5587 5585 5584 5582 5581 5579 5578 5577 5577
5614 5613 5613 5613 5612 5611 5610 5610 5609 5609 5608 5608 5607 5606 5605 5604 5603 5602 5601 5600 5599 5598 5597 5595 5594 5593 5591 5589 5588 5586 5584 5582 5581 5579 5577 5576 5575 5573 5572 5570 5569 5568 5567